Flag for Colombia Weather past 2 weeks in San Andrés, Colombia

Now
82 °F

Passing clouds.


Feels Like: 91 °F
Forecast: 81 / 85 °F
Wind: 8 mph from East

Location: San Andres Isla / Sesquicentenario

Current Time: Jul 29, 2015 at 12:50:08 AM

Latest Report: Jul 28, 2015 at 11:00 PM


Visibility: N/A

Pressure: 29.89 "Hg

Humidity: 84%

Dew point: 77 °F

Location of San AndrésLocation

Historic Weather in San Andrés — Graph

°F

San Andrés temperature yesterday

Maximum temperature yesterday: 86 °F (at 1:00 PM)
Minimum temperature yesterday: 81 °F (at 3:00 AM)
Average temperature yesterday: 83 °F

Past Weeks' High & Low Weather Summary

 TemperatureHumidityPressure
High86 °F (Jul 22, 12:00 PM)94% (Jul 13, 11:00 PM)29.98 "Hg (Jul 13, 11:00 PM)
Low77 °F (Jul 21, 3:00 AM)74% (Jul 19, 5:00 PM)29.80 "Hg (Jul 27, 4:00 PM)
Average82 °F85%29.89 "Hg
* Reported Jul 13 11:00 PM — Jul 28 11:00 PM, San Andrés, Weather by CustomWeather, © 2015

Note: Actual official high and low records may vary slightly from our data, if they occured in-between our weather recording intervals... More about our weather records

Advertising

San Andrés weather history for previous 24 hours

 ConditionsComfort  
Time TempWeatherWind HumidityBarometerVisibility
11:00 PM
Tue, Jul 28
82 °FPassing clouds.8 mph84%29.89 "HgN/A
10:00 PM82 °FOvercast.8 mph84%29.88 "HgN/A
9:00 PM82 °FOvercast.9 mph84%29.87 "HgN/A
8:00 PM82 °FOvercast.8 mph84%29.86 "HgN/A
7:00 PM82 °FPassing clouds.7 mph84%29.84 "HgN/A
6:00 PM82 °FPartly sunny.7 mph84%29.82 "HgN/A
5:00 PM86 °FOvercast.10 mph79%29.81 "HgN/A
4:00 PM86 °FOvercast.12 mph75%29.81 "HgN/A
3:00 PM86 °FOvercast.8 mph79%29.82 "HgN/A
2:00 PM84 °FBroken clouds.9 mph84%29.84 "HgN/A
1:00 PM86 °FPartly sunny.9 mph79%29.86 "HgN/A
12:00 PM84 °FOvercast.7 mph79%29.88 "HgN/A
11:00 AM84 °FOvercast.10 mph79%29.88 "HgN/A
10:00 AM84 °FOvercast.14 mph74%29.87 "HgN/A
9:00 AM82 °FOvercast.12 mph79%29.88 "HgN/A
8:00 AM82 °FOvercast.13 mph79%29.87 "HgN/A
7:00 AM82 °FPartly sunny.14 mph79%29.85 "HgN/A
6:00 AM82 °FPassing clouds.15 mph79%29.83 "HgN/A
5:00 AM82 °FPassing clouds.15 mph84%29.83 "HgN/A
4:00 AM82 °FOvercast.13 mph84%29.82 "HgN/A
3:00 AM81 °FOvercast.12 mph89%29.83 "HgN/A
2:00 AM82 °FPassing clouds.12 mph84%29.85 "HgN/A
1:00 AM82 °FPartly cloudy.7 mph89%29.86 "HgN/A
12:00 AM82 °FPartly cloudy.7 mph89%29.87 "HgN/A
Weather by CustomWeather, © 2015

See weather overviewHow to use our weather pages